Location: Degersen
(52.2871°N, 9.5716°E)
Time: 23:31:04
(UTC+00:00)

Lacrosse 5 rocket - Pass Details

Date: 20 January 2026
Orbit: 402 x 482 km, 57.0° (Epoch: 9 February)

Event Time Altitude Azimuth Distance (km) Brightness Sun altitude
Exits shadow 05:39:51 27° 303° (WNW) 975 2.0 -14.7°
Maximum altitude 05:41:49 78° 25° (NNE) 506 1.1 -14.4°
Drops below altitude 10° 05:45:36 10° 113° (ESE) 1,672 5.2 -13.9°
Sets 05:47:45 0° 115° (ESE) 2,545 6.6 -13.5°
